Location: Melita
(38.4566°N, 122.6369°W)
Time: 19:34:12
(UTC+00:00)

CZ-4 R/B - Pass Details

Date: 24 January 2020
Orbit: 533 x 597 km, 97.7° (Epoch: 28 February)

Event Time Altitude Azimuth Distance (km) Brightness Sun altitude
Rises 14:38:34 0° 25° (NNE) 2,847 5.1 -8.8°
Reaches altitude 10° 14:41:02 10° 38° (NE) 1,937 4.4 -8.4°
Maximum altitude 14:44:35 26° 96° (E) 1,177 4.0 -7.7°
Drops below altitude 10° 14:48:05 10° 153° (SSE) 1,906 4.8 -7.0°
Sets 14:50:29 0° 166° (SSE) 2,792 5.4 -6.6°
